Wind_Speed
44 42 48 47 43 41 40 45 42 46 48 43 45 52 44 41 41 45 49 48 51 50 49 47 53 53 54 50 53 59 59 52 52 52 50 51 52 52 47 42 43 43 47 51 56 56 57 56 59
42 46 49 51 55 52 49 51 51 51 52 46 48 57 50 49 45 48 50 51 51 48 52 50 55 55 55 56 59 61 57 54 54 53 53 57 55 49 47 49 50 51 51 53 55 59 64 64 64
53 53 46 51 54 54 51 51 51 54 54 53 54 62 58 51 50 51 53 55 53 53 56 57 57 60 60 63 64 60 57 56 54 57 58 55 52 49 52 55 56 57 60 61 60 62 64 66 65
59 55 55 53 56 54 56 56 52 55 52 57 60 63 61 56 54 55 57 59 57 58 60 60 59 60 60 66 67 61 59 59 62 58 54 53 54 56 58 59 61 62 63 69 69 69 69 69 71
64 59 55 60 57 56 55 56 54 52 51 54 58 63 61 61 59 61 64 64 61 62 65 64 62 60 63 68 64 62 61 67 61 55 52 55 58 64 66 65 68 66 65 64 64 66 69 68 68
55 56 61 62 60 59 61 58 58 53 55 57 61 64 62 60 64 66 67 66 64 66 67 66 63 62 68 67 63 64 65 66 59 57 58 60 64 66 59 57 56 57 55 53 53 55 58 57 60
53 56 54 57 59 61 64 63 55 54 56 58 61 63 62 63 65 67 69 67 63 64 68 67 66 66 70 63 65 66 69 62 62 60 65 65 63 57 52 52 51 50 51 53 54 55 54 52 52
63 56 56 64 65 67 64 60 56 57 53 51 54 58 59 58 64 67 71 68 64 65 68 68 68 67 65 65 66 68 70 63 61 65 62 53 50 49 50 49 47 48 48 50 53 53 53 54 53
65 61 59 65 70 71 67 62 55 56 53 57 58 59 58 60 60 61 67 66 65 65 70 67 68 70 64 66 68 75 69 63 66 61 53 50 48 47 48 48 46 48 46 45 44 49 52 54 58
70 65 68 73 73 73 70 64 55 58 58 65 63 64 60 55 60 62 64 66 64 68 71 67 69 71 66 67 70 75 70 67 64 55 52 50 49 47 46 46 45 46 48 45 44 44 48 52 55
75 69 72 73 71 71 72 70 65 61 60 68 67 60 56 58 58 60 61 65 64 68 69 68 73 71 69 69 75 71 65 66 58 53 54 52 47 43 44 43 43 42 42 44 45 47 48 51 54
81 75 74 74 76 69 61 64 66 61 60 74 69 60 57 59 61 59 62 65 64 66 66 71 75 71 70 72 76 68 69 62 54 55 55 50 45 43 40 39 41 41 42 43 46 49 52 54 56
83 84 77 73 79 74 68 62 58 61 67 73 66 59 55 61 61 62 66 62 64 65 66 70 73 72 71 76 71 69 64 55 56 54 51 47 43 40 38 38 38 37 38 39 41 43 45 48 52
84 79 74 69 74 75 70 62 62 64 73 69 61 60 63 61 61 66 65 60 63 64 67 71 71 71 72 75 69 66 56 57 55 50 46 42 39 39 38 36 37 36 36 34 35 37 40 43 45
76 77 76 71 70 70 74 60 66 70 76 68 66 66 65 62 64 70 63 63 62 65 67 71 70 69 74 69 68 59 55 56 52 47 44 43 43 42 39 36 34 33 32 33 34 36 39 42 43
79 77 72 71 76 79 82 60 72 75 75 70 70 71 67 61 66 66 61 62 63 64 69 69 69 70 71 64 61 53 57 54 48 45 45 45 43 38 31 29 28 29 31 33 36 39 42 44 45
81 74 74 78 79 72 77 64 73 76 77 74 74 71 66 60 65 63 60 62 62 65 66 66 66 70 61 64 55 54 58 51 46 47 46 43 37 31 25 23 25 30 36 39 41 42 42 43 47
76 80 81 80 86 83 84 72 79 76 76 75 71 65 59 63 68 60 60 60 63 64 62 64 65 65 59 60 51 55 53 47 47 47 42 35 29 24 26 28 30 39 40 40 38 38 38 39 42
87 85 79 77 78 78 77 73 69 74 65 64 61 57 61 64 65 60 58 60 60 60 60 61 65 57 59 52 50 55 47 46 46 41 33 30 27 28 31 33 40 41 35 35 34 35 35 33 35
87 85 76 73 76 84 77 73 69 70 65 64 59 57 61 58 61 59 55 59 58 57 59 62 58 53 54 48 52 49 45 45 41 35 29 27 30 34 36 36 40 33 30 26 23 23 25 24 24
83 84 78 74 77 84 73 69 63 64 62 62 59 57 61 59 59 56 57 56 55 57 59 57 50 54 46 47 51 44 42 42 34 27 26 30 35 36 37 34 30 25 20 17 15 15 16 17 19
75 73 74 80 84 72 77 60 55 59 58 56 56 60 61 58 57 53 53 54 54 56 56 50 51 47 43 47 44 40 39 36 28 25 29 36 38 36 29 26 21 16 14 11 11 11 12 13 14
63 71 74 77 75 67 60 57 51 56 55 53 54 58 55 52 49 48 49 52 54 54 47 46 48 40 44 44 37 36 36 31 24 27 34 36 29 26 23 19 14 10 8 6 5 6 7 10 13
76 71 73 71 64 51 48 56 44 50 53 52 51 47 48 48 46 45 49 51 52 45 42 46 39 39 43 38 33 34 32 23 23 30 31 29 24 23 18 12 8 5 2 2 3 6 7 8 10
72 68 62 55 48 36 47 44 43 45 50 48 45 41 43 42 41 46 47 50 41 39 43 41 34 37 40 34 30 31 25 18 23 28 26 25 22 17 11 8 3 1 4 6 7 8 8 9 12
66 61 55 50 48 39 37 28 38 43 45 41 36 38 40 36 39 44 46 37 35 37 40 32 34 38 35 30 28 27 16 16 24 20 21 19 17 10 5 1 5 7 8 7 7 9 10 14 15
71 66 54 53 43 29 27 30 37 34 38 33 30 30 28 32 37 37 28 29 32 38 30 31 35 38 29 26 24 19 11 18 18 17 19 16 10 5 6 10 9 10 12 10 12 13 14 17 16
81 71 66 55 38 27 28 34 36 30 33 30 23 23 24 25 23 20 24 27 33 30 27 31 36 29 23 22 21 8 10 17 12 15 17 13 8 5 7 13 13 15 14 12 11 13 14 15 19
84 75 60 48 33 26 27 34 29 29 29 25 21 20 20 20 20 21 25 28 29 24 27 30 28 21 22 21 15 1 10 16 12 11 16 12 9 8 11 13 15 13 14 14 14 11 12 19 28
81 76 63 46 35 33 31 33 30 37 29 28 20 16 17 19 18 20 23 30 21 23 26 29 21 19 21 19 4 4 9 13 10 11 14 9 7 12 12 13 19 18 18 17 18 17 18 24 38
Wind_Direction
256 251 255 258 259 264 260 256 253 268 290 301 302 301 299 294 298 298 305 308 313 314 313 317 315 313 314 312 310 311 308 301 293 289 287 292 292 288 274 257 250 255 258 257 252 256 252 251 250
249 250 253 254 258 261 264 263 262 268 285 293 298 297 292 299 293 301 301 302 308 312 315 312 309 316 315 313 310 311 307 301 293 289 294 296 292 279 264 255 254 256 259 262 262 258 255 253 251
250 252 252 251 258 259 259 265 267 270 278 288 293 290 292 297 294 301 300 301 306 312 315 311 309 313 314 312 311 311 308 301 298 299 297 292 288 277 270 260 255 255 258 260 266 264 262 259 256
247 247 253 261 261 261 261 263 265 267 274 286 284 287 290 292 295 297 298 301 304 309 310 311 310 316 313 312 310 311 306 303 302 297 291 291 289 286 281 275 263 260 259 258 261 262 259 257 256
251 255 257 263 260 259 262 264 266 268 276 283 281 285 289 291 294 295 299 300 308 307 307 311 312 317 313 312 311 310 308 307 304 300 296 294 292 289 285 281 276 268 265 264 263 258 255 252 253
254 257 255 258 259 259 262 266 268 277 285 284 283 284 288 293 296 295 297 299 306 305 308 311 315 316 313 312 312 312 309 308 304 300 298 293 290 289 282 281 278 271 267 264 261 258 251 252 251
261 260 258 254 260 261 260 265 269 277 282 281 282 286 289 295 295 295 296 298 302 304 307 312 315 312 312 312 311 311 312 306 304 301 301 294 289 286 281 280 275 270 267 264 263 259 252 250 247
258 266 269 262 266 265 265 266 266 276 282 284 287 288 292 295 294 295 295 299 301 305 308 309 311 307 312 312 312 312 311 306 304 305 300 294 289 287 282 281 278 273 267 262 261 255 251 245 241
263 267 270 270 268 266 268 271 269 272 276 282 282 288 290 289 294 295 296 299 301 306 307 307 306 310 312 312 314 312 308 307 306 303 296 294 295 292 285 280 277 278 273 266 259 250 248 248 244
262 267 266 269 269 269 266 269 268 272 277 284 281 283 287 292 291 292 294 296 301 302 306 305 307 312 314 313 312 311 308 309 310 304 299 299 299 293 287 280 277 273 268 265 260 252 249 247 244
261 265 266 266 266 270 270 267 270 274 283 281 283 282 290 292 291 292 294 294 301 303 304 305 308 312 311 313 311 309 308 311 309 306 305 302 299 293 283 276 272 267 263 260 259 258 251 246 245
261 266 265 262 264 269 271 269 270 273 281 277 280 284 294 293 291 291 293 297 304 301 304 306 309 310 311 312 310 311 312 312 308 306 306 302 299 294 284 279 276 271 266 262 259 255 251 248 246
262 266 265 262 263 269 269 271 268 274 276 276 280 286 291 290 291 293 294 300 300 302 304 307 308 309 311 311 311 313 313 311 313 311 307 304 300 294 288 283 277 273 269 263 259 256 254 252 248
262 262 265 267 267 271 267 267 268 275 273 277 283 287 287 288 288 291 294 298 300 301 304 305 308 309 309 310 313 316 312 317 316 311 309 307 303 298 294 291 283 280 274 268 264 261 258 257 254
261 262 266 266 266 268 268 269 269 267 270 277 280 283 284 286 289 289 292 296 298 299 303 304 306 307 309 312 316 315 316 319 315 313 309 307 306 302 300 291 286 279 273 269 262 258 254 251 249
255 257 259 259 260 261 263 264 264 266 270 273 276 280 282 284 284 284 292 295 296 299 301 303 305 308 308 312 314 314 320 317 315 312 314 310 305 301 295 289 286 281 277 274 271 264 255 249 246
255 257 258 255 255 256 262 258 262 267 265 269 274 279 282 279 279 285 288 290 294 297 299 302 304 306 309 312 311 320 318 315 315 315 313 308 302 298 295 288 284 283 286 282 277 270 262 254 250
249 254 254 257 260 259 260 265 267 268 272 273 276 282 279 276 279 287 286 289 291 294 297 300 304 305 308 310 314 319 316 316 318 316 310 303 299 297 289 287 283 295 290 283 278 270 263 256 251
253 253 255 256 258 258 261 262 262 270 270 272 274 275 273 275 279 283 286 288 290 293 297 299 302 306 307 308 320 318 314 321 317 314 304 297 299 301 298 291 298 298 286 280 274 268 261 252 247
250 253 253 251 256 262 263 265 264 269 268 267 270 269 271 274 275 280 286 286 289 293 295 300 303 305 306 312 319 315 322 318 315 308 298 301 305 301 300 297 298 292 283 281 275 266 256 246 238
253 254 252 252 256 262 262 265 263 266 267 265 267 266 267 269 273 278 281 285 288 291 296 301 304 304 306 317 316 317 321 317 314 305 308 310 304 301 300 299 294 288 286 282 271 259 247 241 234
250 250 251 255 257 260 263 265 264 262 262 262 263 261 261 266 271 277 280 283 288 293 298 300 303 305 312 316 314 320 317 317 311 309 315 310 305 304 306 302 297 296 288 279 266 251 241 231 226
244 246 249 252 257 259 263 263 256 257 256 256 254 258 262 265 272 274 278 283 288 293 298 302 304 306 313 315 320 320 318 313 307 316 313 312 310 313 315 308 301 292 286 273 257 245 230 213 205
241 245 250 255 256 259 257 259 253 254 256 255 254 257 259 261 266 270 277 282 289 293 301 303 297 307 316 319 320 319 317 308 316 317 314 316 316 316 318 311 295 285 284 226 175 162 158 174 174
248 252 254 255 256 251 253 260 250 258 256 253 252 251 254 259 264 272 279 284 289 290 303 299 305 312 318 319 319 319 311 315 320 316 321 319 316 321 328 317 289 177 131 126 133 123 138 140 146
242 243 246 248 251 255 261 266 261 257 254 247 246 248 252 258 264 271 277 283 286 299 301 303 309 319 315 315 318 320 310 320 318 317 323 333 327 347 354 20 117 118 115 116 124 128 139 146 145
239 243 243 247 254 250 260 258 259 254 252 250 244 244 250 253 263 269 276 282 293 304 299 311 316 312 313 321 319 316 319 323 320 315 329 346 350 27 93 99 113 121 120 126 127 127 139 151 155
235 234 240 248 247 247 247 257 251 245 248 248 239 234 236 248 253 266 281 293 305 297 307 315 313 309 322 325 317 303 329 331 333 324 339 351 29 114 130 100 117 127 128 130 131 125 135 145 155
237 244 243 242 241 244 247 251 243 233 237 222 216 226 232 235 255 271 286 303 300 301 312 317 313 327 330 319 317 298 333 347 357 350 345 359 43 91 106 119 125 131 137 129 130 138 136 146 150
228 230 229 226 221 225 231 239 230 219 220 213 202 213 219 243 263 279 297 304 293 309 313 322 324 339 329 317 169 95 7 12 14 359 346 19 69 93 111 117 123 127 125 130 122 122 128 137 150
Height
10936 10939 10938 10937 10939 10939 10939 10940 10937 10938 10940 10939 10937 10936 10936 10936 10934 10930 10927 10924 10922 10918 10914 10910 10905 10899 10895 10892 10888 10883 10878 10873 10870 10866 10862 10859 10856 10853 10852 10850 10849 10848 10847 10846 10847 10848 10851 10854 10856
10929 10931 10931 10930 10929 10932 10932 10932 10933 10932 10932 10932 10932 10929 10929 10929 10926 10923 10920 10918 10915 10911 10908 10902 10897 10891 10886 10881 10876 10871 10865 10860 10856 10852 10848 10843 10840 10838 10837 10837 10835 10834 10833 10832 10830 10831 10833 10837 10840
10920 10924 10923 10922 10922 10923 10923 10923 10927 10926 10925 10924 10923 10921 10921 10921 10918 10915 10911 10908 10905 10903 10900 10895 10888 10882 10875 10867 10864 10859 10853 10848 10843 10839 10833 10828 10825 10823 10820 10819 10818 10817 10817 10816 10815 10815 10815 10818 10821
10911 10913 10916 10914 10914 10915 10915 10917 10919 10919 10920 10918 10916 10913 10912 10913 10910 10907 10902 10899 10897 10894 10889 10884 10879 10873 10865 10857 10851 10846 10842 10836 10831 10824 10818 10813 10807 10804 10801 10798 10798 10796 10797 10799 10798 10798 10798 10801 10804
10902 10906 10909 10907 10906 10906 10906 10908 10912 10913 10915 10912 10908 10904 10903 10904 10901 10897 10892 10889 10886 10882 10877 10872 10867 10861 10853 10847 10839 10833 10827 10821 10814 10808 10803 10799 10793 10787 10782 10779 10776 10776 10777 10778 10779 10778 10780 10782 10785
10894 10896 10899 10898 10897 10899 10896 10902 10904 10908 10906 10903 10899 10894 10894 10895 10889 10885 10882 10878 10875 10870 10865 10859 10855 10849 10841 10834 10826 10821 10814 10807 10800 10793 10789 10784 10778 10770 10764 10761 10758 10757 10756 10758 10759 10761 10764 10767 10768
10881 10889 10892 10890 10886 10886 10887 10891 10897 10900 10897 10895 10889 10885 10885 10886 10880 10875 10871 10869 10865 10860 10854 10848 10844 10838 10831 10822 10816 10808 10801 10794 10786 10779 10772 10766 10760 10754 10750 10747 10746 10744 10743 10742 10743 10744 10747 10751 10753
10872 10881 10883 10882 10875 10872 10877 10884 10890 10892 10889 10884 10879 10877 10877 10876 10871 10865 10858 10857 10854 10850 10843 10837 10834 10827 10819 10810 10804 10796 10789 10782 10773 10765 10756 10749 10744 10739 10735 10733 10731 10729 10728 10728 10728 10729 10732 10735 10740
10862 10871 10873 10868 10864 10861 10868 10872 10882 10883 10879 10873 10871 10871 10872 10868 10863 10858 10848 10845 10842 10838 10831 10828 10822 10816 10808 10799 10790 10783 10776 10767 10759 10749 10742 10736 10730 10726 10722 10719 10717 10713 10713 10713 10714 10716 10719 10722 10726
10852 10859 10862 10853 10854 10853 10860 10862 10870 10870 10867 10858 10862 10862 10864 10862 10856 10850 10844 10835 10832 10827 10822 10816 10810 10803 10795 10787 10779 10770 10760 10752 10741 10735 10728 10722 10717 10713 10709 10706 10704 10702 10700 10700 10701 10704 10707 10709 10712
10840 10854 10846 10845 10843 10843 10850 10856 10858 10861 10858 10842 10846 10852 10854 10852 10846 10840 10834 10828 10825 10818 10812 10805 10798 10791 10784 10775 10768 10758 10748 10738 10728 10721 10714 10708 10704 10700 10696 10693 10690 10689 10688 10688 10688 10689 10692 10694 10697
10828 10837 10835 10836 10826 10836 10844 10845 10852 10847 10849 10828 10837 10844 10841 10836 10833 10829 10825 10817 10814 10807 10802 10795 10788 10782 10772 10765 10757 10745 10735 10725 10717 10708 10701 10696 10691 10688 10683 10681 10679 10677 10676 10675 10675 10676 10677 10680 10682
10821 10821 10822 10821 10818 10825 10832 10836 10839 10838 10829 10819 10830 10832 10831 10826 10822 10816 10811 10807 10803 10797 10792 10785 10778 10771 10761 10755 10744 10733 10723 10714 10704 10697 10690 10684 10680 10676 10672 10669 10667 10665 10665 10664 10663 10662 10663 10665 10669
10794 10804 10808 10811 10809 10813 10817 10826 10825 10824 10805 10815 10824 10823 10816 10816 10812 10806 10800 10798 10793 10788 10782 10774 10768 10760 10753 10743 10731 10722 10712 10702 10693 10687 10679 10674 10669 10665 10661 10658 10656 10652 10652 10650 10649 10650 10649 10650 10652
10782 10785 10792 10796 10798 10800 10794 10819 10813 10807 10796 10808 10809 10810 10808 10806 10800 10793 10791 10789 10784 10777 10772 10765 10758 10751 10742 10731 10721 10712 10702 10693 10684 10677 10670 10664 10659 10654 10651 10648 10645 10644 10641 10641 10640 10639 10639 10639 10639
10768 10770 10781 10785 10782 10782 10773 10811 10794 10790 10791 10796 10798 10797 10798 10795 10788 10783 10784 10780 10774 10768 10762 10755 10749 10741 10732 10722 10713 10703 10693 10685 10677 10669 10661 10655 10650 10645 10643 10640 10638 10636 10633 10630 10628 10627 10626 10627 10628
10758 10763 10762 10760 10758 10763 10759 10791 10779 10776 10777 10784 10785 10786 10788 10785 10774 10776 10775 10771 10765 10760 10754 10747 10740 10732 10723 10714 10704 10695 10685 10677 10669 10660 10653 10647 10642 10639 10637 10635 10632 10628 10624 10620 10617 10614 10613 10614 10614
10729 10737 10736 10746 10743 10755 10752 10776 10763 10765 10766 10771 10776 10778 10776 10771 10764 10767 10764 10762 10757 10751 10746 10739 10732 10724 10714 10706 10696 10687 10678 10669 10660 10652 10646 10641 10637 10634 10631 10628 10624 10618 10613 10607 10604 10602 10600 10600 10602
10710 10715 10727 10727 10730 10739 10743 10753 10758 10752 10762 10759 10764 10767 10762 10759 10756 10757 10755 10752 10748 10743 10737 10732 10724 10715 10706 10697 10688 10679 10670 10660 10653 10646 10641 10636 10632 10628 10624 10619 10612 10606 10600 10596 10592 10590 10589 10590 10591
10694 10701 10713 10712 10713 10719 10729 10737 10744 10744 10748 10749 10753 10753 10749 10750 10747 10747 10746 10742 10738 10733 10729 10722 10714 10706 10698 10689 10681 10672 10660 10653 10647 10641 10636 10631 10626 10621 10616 10609 10602 10595 10590 10586 10584 10582 10581 10583 10584
10682 10688 10690 10695 10701 10705 10714 10724 10731 10732 10737 10735 10738 10739 10736 10736 10738 10738 10735 10733 10729 10725 10719 10713 10706 10698 10689 10681 10673 10663 10654 10648 10641 10636 10631 10625 10620 10614 10607 10599 10592 10587 10583 10580 10578 10577 10578 10578 10580
10668 10668 10674 10681 10685 10704 10696 10724 10720 10715 10717 10721 10724 10722 10722 10726 10728 10728 10725 10723 10720 10716 10710 10704 10697 10689 10682 10674 10665 10656 10649 10642 10636 10631 10625 10620 10613 10605 10597 10590 10585 10581 10578 10576 10574 10574 10574 10575 10576
10658 10653 10658 10665 10676 10691 10693 10700 10702 10698 10701 10704 10706 10708 10714 10718 10718 10717 10716 10715 10712 10708 10702 10696 10689 10682 10675 10666 10657 10650 10643 10638 10632 10627 10620 10614 10606 10597 10590 10585 10581 10578 10576 10574 10573 10573 10573 10574 10575
10627 10641 10647 10660 10671 10686 10677 10681 10687 10670 10691 10693 10695 10701 10705 10706 10707 10706 10708 10707 10704 10700 10695 10689 10682 10675 10667 10658 10651 10645 10639 10633 10629 10623 10616 10608 10600 10593 10587 10583 10579 10577 10575 10574 10574 10574 10574 10575 10576
10625 10634 10644 10655 10664 10672 10668 10675 10662 10674 10680 10682 10687 10692 10693 10696 10697 10698 10699 10698 10696 10692 10687 10680 10674 10666 10659 10651 10646 10641 10635 10631 10626 10620 10612 10604 10597 10591 10586 10582 10579 10577 10577 10576 10576 10576 10576 10577 10578
10616 10624 10637 10645 10652 10661 10662 10663 10660 10661 10665 10672 10679 10682 10685 10688 10689 10690 10692 10690 10688 10684 10678 10672 10665 10658 10652 10646 10642 10637 10633 10629 10624 10616 10610 10603 10596 10590 10586 10583 10580 10579 10579 10580 10579 10579 10580 10580 10582
10606 10617 10629 10635 10646 10653 10654 10651 10650 10655 10658 10664 10670 10674 10679 10680 10681 10683 10684 10683 10680 10676 10670 10665 10657 10652 10646 10641 10637 10634 10631 10628 10621 10614 10608 10602 10596 10592 10588 10585 10584 10583 10582 10583 10583 10584 10585 10586 10587
10591 10599 10615 10632 10641 10646 10645 10642 10644 10649 10654 10659 10666 10671 10672 10673 10675 10677 10677 10676 10673 10668 10663 10657 10652 10646 10640 10636 10634 10633 10631 10626 10619 10614 10607 10602 10597 10593 10590 10588 10588 10586 10586 10587 10587 10589 10590 10591 10594
10581 10598 10615 10625 10635 10638 10638 10636 10640 10646 10652 10657 10663 10664 10666 10668 10671 10672 10672 10669 10666 10662 10657 10653 10646 10639 10636 10633 10632 10632 10630 10625 10619 10614 10607 10602 10597 10594 10592 10591 10590 10590 10590 10591 10592 10594 10595 10597 10601
10568 10583 10600 10612 10624 10627 10629 10629 10635 10641 10647 10653 10657 10659 10661 10663 10666 10667 10666 10664 10660 10656 10651 10647 10640 10635 10633 10630 10631 10631 10629 10624 10619 10615 10608 10603 10599 10597 10596 10595 10594 10594 10594 10595 10597 10599 10601 10603 10608